When you browse on this site, cookies collect data to enhance your experience and personalize the content and advertising you see.
Visit our Privacy Policy to learn more. By continuing to use the site, you agree to this use of cookies and data.
  • en France
  • Liste des pays
  • À 7 jours
  • Température de l'eau
  • Carte satellitaire
  • Carte météo
  • Widgets météo
  • user-avatar
    Se connecter

    Météo par heure à Newcastle

    Ce jour, 22 Avril, Lundi

    Heure Température Précipitation Vent Pression Humidité
    00:00 +19°C° 0 mm 4 m/s 766 mmHg 88%
    01:00 +19°C° 0 mm 4 m/s 766 mmHg 89%
    02:00 +19°C° 0 mm 4 m/s 765 mmHg 88%
    03:00 +18°C° 0 mm 4 m/s 765 mmHg 88%
    04:00 +18°C° 0 mm 4 m/s 765 mmHg 88%
    05:00 +18°C° 0 mm 4 m/s 766 mmHg 88%
    06:00 +18°C° 0 mm 3 m/s 766 mmHg 87%
    07:00 +18°C° 0 mm 3 m/s 766 mmHg 87%
    08:00 +20°C° 0 mm 3 m/s 766 mmHg 78%
    09:00 +22°C° 0 mm 3 m/s 767 mmHg 69%
    10:00 +25°C° 0 mm 4 m/s 767 mmHg 60%
    11:00 +26°C° 0 mm 3 m/s 766 mmHg 57%
    12:00 +27°C° 0 mm 3 m/s 766 mmHg 54%
    13:00 +28°C° 0 mm 3 m/s 766 mmHg 51%
    14:00 +27°C° 0 mm 4 m/s 765 mmHg 55%
    15:00 +27°C° 0 mm 4 m/s 765 mmHg 59%
    16:00 +26°C° 0 mm 4 m/s 765 mmHg 63%
    17:00 +25°C° 0 mm 4 m/s 766 mmHg 70%
    18:00 +22°C° 0 mm 4 m/s 766 mmHg 78%
    19:00 +21°C° 0 mm 4 m/s 767 mmHg 85%
    20:00 +20°C° 0 mm 4 m/s 767 mmHg 87%
    21:00 +20°C° 0 mm 4 m/s 767 mmHg 88%
    22:00 +20°C° 0 mm 3 m/s 768 mmHg 90%
    23:00 +19°C° 0 mm 3 m/s 768 mmHg 92%

    Demain, 23 Avril, Mardi

    Heure Température Précipitation Vent Pression Humidité
    00:00 +19°C° 0 mm 3 m/s 768 mmHg 94%
    01:00 +18°C° 0 mm 2 m/s 768 mmHg 96%
    02:00 +18°C° 0 mm 2 m/s 768 mmHg 96%
    03:00 +18°C° 0 mm 2 m/s 768 mmHg 96%
    04:00 +18°C° 0 mm 1 m/s 768 mmHg 97%
    05:00 +19°C° 0 mm 1 m/s 768 mmHg 96%
    06:00 +19°C° 0 mm 1 m/s 768 mmHg 96%
    07:00 +17°C° 0 mm 0 m/s 769 mmHg 96%
    08:00 +21°C° 0 mm 1 m/s 769 mmHg 86%
    09:00 +23°C° 0 mm 1 m/s 769 mmHg 77%
    10:00 +26°C° 0 mm 1 m/s 769 mmHg 67%
    11:00 +26°C° 0.1 mm 2 m/s 769 mmHg 65%
    12:00 +26°C° 0.1 mm 2 m/s 768 mmHg 63%
    13:00 +27°C° 0.1 mm 3 m/s 768 mmHg 62%
    14:00 +26°C° 0.2 mm 3 m/s 768 mmHg 67%
    15:00 +25°C° 0.2 mm 3 m/s 767 mmHg 72%
    16:00 +25°C° 0.2 mm 3 m/s 767 mmHg 77%
    17:00 +22°C° 0.6 mm 3 m/s 768 mmHg 83%
    18:00 +21°C° 0.6 mm 3 m/s 768 mmHg 89%
    19:00 +20°C° 0.6 mm 3 m/s 769 mmHg 95%
    20:00 +19°C° 0.1 mm 3 m/s 769 mmHg 96%
    21:00 +19°C° 0.1 mm 3 m/s 769 mmHg 96%
    22:00 +19°C° 0.1 mm 3 m/s 769 mmHg 96%
    23:00 +19°C° 0 mm 3 m/s 769 mmHg 96%

    Après-demain, 24 Avril, Mercredi

    Heure Température Précipitation Vent Pression Humidité
    00:00 +18°C° 0 mm 2 m/s 769 mmHg 96%
    01:00 +18°C° 0 mm 2 m/s 768 mmHg 97%
    02:00 +18°C° 0 mm 2 m/s 768 mmHg 97%
    03:00 +18°C° 0 mm 2 m/s 768 mmHg 97%
    04:00 +17°C° 0 mm 2 m/s 768 mmHg 98%
    05:00 +18°C° 0 mm 1 m/s 768 mmHg 98%
    06:00 +19°C° 0 mm 1 m/s 768 mmHg 98%
    07:00 +19°C° 0 mm 1 m/s 768 mmHg 98%
    08:00 +21°C° 0 mm 1 m/s 768 mmHg 89%
    09:00 +22°C° 0 mm 1 m/s 768 mmHg 81%
    10:00 +24°C° 0 mm 1 m/s 768 mmHg 73%
    11:00 +25°C° 0 mm 1 m/s 768 mmHg 68%
    12:00 +26°C° 0 mm 2 m/s 767 mmHg 62%
    13:00 +27°C° 0 mm 2 m/s 766 mmHg 56%
    14:00 +27°C° 0 mm 2 m/s 766 mmHg 58%
    15:00 +26°C° 0 mm 2 m/s 766 mmHg 61%
    16:00 +26°C° 0 mm 3 m/s 765 mmHg 63%
    17:00 +24°C° 0 mm 3 m/s 766 mmHg 69%
    18:00 +22°C° 0 mm 4 m/s 766 mmHg 74%
    19:00 +20°C° 0 mm 4 m/s 766 mmHg 80%
    20:00 +20°C° 0 mm 4 m/s 766 mmHg 83%
    21:00 +19°C° 0 mm 4 m/s 766 mmHg 86%
    22:00 +19°C° 0 mm 3 m/s 767 mmHg 88%
    23:00 +18°C° 0 mm 3 m/s 766 mmHg 90%

    25 Avril, Jeudi

    Heure Température Précipitation Vent Pression Humidité
    00:00 +18°C° 0 mm 3 m/s 766 mmHg 92%
    01:00 +17°C° 0 mm 2 m/s 765 mmHg 94%
    02:00 +17°C° 0 mm 2 m/s 765 mmHg 94%
    03:00 +17°C° 0 mm 2 m/s 765 mmHg 94%
    04:00 +17°C° 0 mm 2 m/s 764 mmHg 94%
    05:00 +17°C° 0 mm 2 m/s 765 mmHg 91%
    06:00 +17°C° 0 mm 2 m/s 765 mmHg 89%
    07:00 +17°C° 0 mm 2 m/s 765 mmHg 87%
    08:00 +20°C° 0 mm 2 m/s 765 mmHg 77%
    09:00 +24°C° 0 mm 2 m/s 765 mmHg 66%
    10:00 +26°C° 0 mm 2 m/s 765 mmHg 56%
    11:00 +27°C° 0 mm 2 m/s 765 mmHg 53%
    12:00 +29°C° 0 mm 2 m/s 764 mmHg 49%
    13:00 +30°C° 0 mm 2 m/s 763 mmHg 46%
    14:00 +29°C° 0 mm 2 m/s 763 mmHg 52%
    15:00 +27°C° 0 mm 3 m/s 763 mmHg 58%
    16:00 +26°C° 0 mm 3 m/s 762 mmHg 64%
    17:00 +24°C° 0 mm 3 m/s 763 mmHg 74%
    18:00 +22°C° 0 mm 3 m/s 763 mmHg 83%
    19:00 +20°C° 0 mm 3 m/s 764 mmHg 93%
    20:00 +19°C° 0 mm 3 m/s 764 mmHg 93%
    21:00 +19°C° 0 mm 2 m/s 764 mmHg 93%
    22:00 +19°C° 0 mm 2 m/s 764 mmHg 93%
    23:00 +18°C° 0 mm 2 m/s 763 mmHg 91%

    26 Avril, Vendredi

    Heure Température Précipitation Vent Pression Humidité
    00:00 +18°C° 0 mm 2 m/s 763 mmHg 89%
    01:00 +18°C° 0 mm 3 m/s 762 mmHg 87%
    02:00 +18°C° 0 mm 3 m/s 762 mmHg 83%
    03:00 +18°C° 0 mm 3 m/s 762 mmHg 79%
    04:00 +18°C° 0 mm 4 m/s 762 mmHg 75%
    05:00 +18°C° 0 mm 4 m/s 762 mmHg 75%
    06:00 +18°C° 0 mm 4 m/s 762 mmHg 75%
    07:00 +18°C° 0 mm 4 m/s 763 mmHg 75%
    08:00 +20°C° 0 mm 4 m/s 763 mmHg 65%
    09:00 +22°C° 0 mm 4 m/s 762 mmHg 54%
    10:00 +26°C° 0 mm 4 m/s 762 mmHg 43%
    11:00 +27°C° 0 mm 3 m/s 762 mmHg 38%
    12:00 +28°C° 0 mm 3 m/s 761 mmHg 32%
    13:00 +29°C° 0 mm 2 m/s 761 mmHg 26%
    14:00 +29°C° 0 mm 2 m/s 761 mmHg 30%
    15:00 +28°C° 0 mm 2 m/s 761 mmHg 33%
    16:00 +27°C° 0 mm 2 m/s 761 mmHg 36%
    17:00 +25°C° 0 mm 1 m/s 761 mmHg 42%
    18:00 +22°C° 0 mm 1 m/s 762 mmHg 48%
    19:00 +19°C° 0 mm 1 m/s 763 mmHg 54%
    20:00 +18°C° 0 mm 3 m/s 764 mmHg 55%
    21:00 +17°C° 0 mm 4 m/s 764 mmHg 55%
    22:00 +16°C° 0 mm 5 m/s 765 mmHg 56%
    23:00 +15°C° 0 mm 4 m/s 765 mmHg 62%

    27 Avril, Samedi

    Heure Température Précipitation Vent Pression Humidité
    00:00 +15°C° 0 mm 4 m/s 765 mmHg 68%
    01:00 +14°C° 0 mm 3 m/s 765 mmHg 74%
    02:00 +15°C° 0.1 mm 2 m/s 765 mmHg 75%
    03:00 +15°C° 0.1 mm 2 m/s 765 mmHg 76%
    04:00 +15°C° 0.1 mm 1 m/s 765 mmHg 77%
    05:00 +15°C° 0 mm 2 m/s 765 mmHg 77%
    06:00 +14°C° 0 mm 2 m/s 765 mmHg 77%
    07:00 +13°C° 0 mm 3 m/s 765 mmHg 77%
    08:00 +16°C° 0 mm 3 m/s 765 mmHg 71%
    09:00 +18°C° 0 mm 2 m/s 765 mmHg 65%
    10:00 +20°C° 0 mm 2 m/s 765 mmHg 59%
    11:00 +21°C° 0 mm 3 m/s 764 mmHg 52%
    12:00 +22°C° 0 mm 3 m/s 763 mmHg 44%
    13:00 +25°C° 0 mm 3 m/s 762 mmHg 37%
    14:00 +25°C° 0 mm 3 m/s 762 mmHg 36%
    15:00 +25°C° 0 mm 3 m/s 761 mmHg 35%
    16:00 +25°C° 0 mm 2 m/s 761 mmHg 34%
    17:00 +22°C° 0 mm 3 m/s 761 mmHg 35%
    18:00 +20°C° 0 mm 4 m/s 762 mmHg 35%
    19:00 +19°C° 0 mm 5 m/s 762 mmHg 35%
    20:00 +17°C° 0 mm 6 m/s 762 mmHg 37%
    21:00 +16°C° 0 mm 6 m/s 763 mmHg 39%
    22:00 +15°C° 0 mm 6 m/s 763 mmHg 40%
    23:00 +14°C° 0 mm 5 m/s 763 mmHg 43%
    Voir plus